[[{"header":{"parameterUnit":"m.s-1","parameterCategory":1,"la1":30.2991,"la2":30.254,"lo1":-89.0895,"lo2":-89.0444,"dy":0.0017,"dx":0.0017,"nx":28,"ny":28,"refTime":"2024-04-23T03:00:00:Z","depth":0,"parameterNumber":2,"parameterNumberName":"U-component_of_WINDS"},"data":[0,0,0,0,0,0,0,0,0,0,0,0,0,0,0,0,0,0,0,0,0,0,0,0,0,0,0,0,0,0,0,0,0,0,0,0,0,0,0,0,0,0,0,0,0,0,0,0,0,0,0,0,0,0,0,0,0,0,0.1914,0.1914,0,0.1928,0.1928,0.1928,0.1925,0.1925,0.1924,0.1924,0.1936,0.1937,0.1937,0,0,0,0,0,0,0,0,0,0,0,0,0,0.1884,0.1885,0.1914,0.1914,0.1915,0.1928,0.1928,0.1928,0.1925,0.1925,0.1924,0.1924,0.1936,0.1937,0.1937,0,0,0,0,0,0,0,0,0,0,0,0,0,0.1897,0.1885,0.1914,0.1915,0.1915,0.1928,0.1928,0.1928,0.1925,0.1925,0.1924,0.1924,0.1936,0.1937,0.1937,0.195,0,0,0.194,0.194,0,0,0,0,0,0,0,0,0.1896,0.1898,0.1914,0.1915,0.1915,0.1924,0.1921,0.1935,0.1925,0.1921,0.1924,0.1924,0.1932,0.1933,0.1937,0.195,0.1951,0.194,0.194,0.1941,0.1941,0,0,0,0,0,0,0,0.1896,0.1898,0.1919,0.1915,0.1915,0.1914,0.1915,0.1924,0.1929,0.1921,0.1921,0.1923,0.1932,0.1936,0.1937,0.1951,0.194,0.1941,0.1941,0.1941,0.1975,0.1975,0,0,0,0,0,0,0.1895,0.1897,0.1919,0.192,0.1905,0.1914,0.1916,0.1922,0.1929,0.1929,0.1923,0.1923,0.1935,0.1936,0.1937,0.1952,0.1941,0.1942,0.1942,0.1974,0.1975,0.1975,0,0,0,0,0,0,0.1894,0.1897,0.1918,0.1908,0.1911,0.1915,0.1922,0.1922,0.1926,0.193,0.1931,0.1926,0.1934,0.1936,0.1947,0.1952,0.1942,0.1943,0.1974,0.1974,0.1975,0.1981,0,0,0,0,0,0,0.1893,0.1897,0.1902,0.1909,0.1912,0.1928,0.1922,0.1923,0.1927,0.1927,0.1933,0.1933,0.1934,0.1945,0.1947,0.1953,0.1943,0.1973,0.1974,0.1975,0.198,0.1981,0.1983,0,0,0,0,0,0.1892,0.1903,0.1902,0.1905,0.1918,0.1929,0.193,0.1932,0.1928,0.1933,0.1935,0.1933,0.1951,0.1947,0.1949,0.1955,0.1973,0.1974,0.1975,0.198,0.1981,0.1983,0,0,0,0,0,0,0.1896,0.1904,0.1903,0.1916,0.1922,0.1928,0.1934,0.1933,0.194,0.1939,0.194,0.1941,0.1952,0.1954,0.1949,0.1967,0.1961,0.1963,0.1964,0.1966,0.1967,0.1966,0.1944,0,0,0,0,0,0.1898,0.1907,0.1913,0.1924,0.1927,0.193,0.1934,0.1935,0.1941,0.1943,0.1946,0.1951,0.1958,0.1962,0.1969,0.1981,0.1981,0.1986,0.1987,0.1988,0.1989,0.1995,0.1996,0.1978,0.1978,0.1978,0,0,0.1903,0.1909,0.1914,0.1925,0.1929,0.1937,0.1932,0.194,0.1946,0.1944,0.1954,0.1957,0.1962,0.1973,0.1978,0.1976,0.1994,0.1989,0.199,0.199,0.1996,0.1997,0.1999,0.1979,0.1978,0.1978,0,0,0.1916,0.1921,0.1931,0.1935,0.1942,0.1944,0.1947,0.1953,0.1955,0.1965,0.1963,0.197,0.1981,0.1985,0.1989,0.2003,0.2001,0.2005,0.2011,0.2017,0.2018,0.2019,0.2023,0.2025,0.2006,0.2006,0.2006,0,0.1921,0.1933,0.1935,0.1944,0.1948,0.1948,0.1956,0.1961,0.1969,0.1972,0.1969,0.1984,0.1987,0.1999,0.2002,0.2005,0.2007,0.2004,0.2018,0.2019,0.202,0.2024,0.2026,0.2006,0.2006,0.2006,0.2006,0,0.1939,0.1947,0.1954,0.1962,0.1968,0.1976,0.1979,0.1984,0.1984,0.1986,0.1996,0.2001,0.2008,0.2011,0.2011,0.2022,0.202,0.2018,0.2012,0.2022,0.2026,0.2028,0.2007,0.2007,0.2006,0.2006,0,0,0.1954,0.1964,0.1966,0.1969,0.1977,0.1983,0.1991,0.1999,0.2002,0.2008,0.2015,0.2025,0.2022,0.2026,0.2027,0.2032,0.2041,0.2029,0.2029,0.203,0.2053,0.2054,0.2056,0.204,0.2041,0.2041,0.2052,0,0.1966,0.1982,0.1984,0.1997,0.2004,0.2003,0.2011,0.2015,0.2018,0.2024,0.2026,0.2033,0.203,0.2032,0.2037,0.2039,0.2046,0.2039,0.2045,0.2046,0.2043,0.2058,0.206,0.207,0.2054,0.2054,0.2054,0,0.1983,0.199,0.2004,0.201,0.2013,0.202,0.2026,0.2032,0.2037,0.2039,0.2043,0.2043,0.2051,0.2046,0.2056,0.2051,0.2054,0.2055,0.2056,0.2056,0.205,0.2058,0.2073,0.2075,0.2057,0.2057,0.2056,0,0.1992,0.2004,0.2014,0.2017,0.2025,0.2029,0.2032,0.2037,0.2041,0.2047,0.205,0.2056,0.2059,0.2064,0.2065,0.2061,0.2075,0.207,0.2075,0.2075,0.2078,0.2077,0.2093,0.2081,0.2081,0.2081,0.2081,0,0.2005,0.2013,0.2018,0.2024,0.2033,0.2035,0.2044,0.2046,0.2051,0.2057,0.2057,0.2062,0.2064,0.2069,0.207,0.2078,0.208,0.208,0.208,0.208,0.208,0.2081,0.208,0.2081,0.2081,0.2081,0.2081,0,0.2016,0.2019,0.203,0.2036,0.2038,0.2044,0.2049,0.2054,0.2057,0.2064,0.2066,0.2069,0.2076,0.2078,0.2085,0.2086,0.2095,0.2095,0.2093,0.2093,0.2098,0.2097,0.2115,0.2117,0.2104,0.2104,0.2104,0,0.2024,0.203,0.2037,0.2041,0.2045,0.2052,0.2056,0.2058,0.2062,0.2069,0.2073,0.208,0.2085,0.2095,0.2098,0.2104,0.2103,0.2109,0.2104,0.2103,0.2102,0.2101,0.2102,0.211,0.211,0.211,0.211,0,0.2037,0.2038,0.2045,0.2052,0.2057,0.2063,0.2068,0.2071,0.2074,0.2079,0.2086,0.209,0.2098,0.2104,0.211,0.2112,0.2111,0.2112,0.2113,0.2112,0.2111,0.2111,0.2095,0.2111,0.2111,0.2111,0.2111,0.2111,0.2046,0.2051,0.2057,0.2064,0.2068,0.2073,0.2078,0.2082,0.2088,0.2094,0.2095,0.2102,0.2107,0.2115,0.2118,0.2123,0.2121,0.2123,0.2124,0.2124,0.2124,0.2111,0.2124,0.2124,0.2124,0.2124,0.2124,0,0.2058,0.2062,0.2069,0.2076,0.2082,0.2081,0.2087,0.2091,0.2098,0.2102,0.2108,0.2115,0.2121,0.2124,0.213,0.2134,0.2133,0.2135,0.2134,0.2135,0.2126,0.2124,0.2135,0.2135,0.2135,0.2135,0.2135,0.2135,0.2065,0.2074,0.2076,0.2087,0.2091,0.2098,0.2101,0.2106,0.2109,0.2118,0.2123,0.2125,0.2129,0.2136,0.2141,0.2142,0.2143,0.2145,0.2146,0.2137,0.2136,0.2134,0.2132,0.2146,0.2146,0.2154,0.2154,0.2154]},{"header":{"parameterUnit":"m.s-1","parameterCategory":1,"la1":30.2991,"la2":30.254,"lo1":-89.0895,"lo2":-89.0444,"dy":0.0017,"dx":0.0017,"nx":28,"ny":28,"refTime":"2024-04-23T03:00:00:Z","depth":0,"parameterNumber":3,"parameterNumberName":"V-component_of_WINDS"},"data":[0,0,0,0,0,0,0,0,0,0,0,0,0,0,0,0,0,0,0,0,0,0,0,0,0,0,0,0,0,0,0,0,0,0,0,0,0,0,0,0,0,0,0,0,0,0,0,0,0,0,0,0,0,0,0,0,0,0,0.7383,0.7385,0,0.7522,0.7524,0.7525,0.7536,0.7535,0.7533,0.7532,0.7673,0.7678,0.7683,0,0,0,0,0,0,0,0,0,0,0,0,0,0.7125,0.7129,0.7383,0.7385,0.7387,0.7522,0.7524,0.7526,0.7536,0.7534,0.7533,0.7531,0.7671,0.7677,0.7683,0,0,0,0,0,0,0,0,0,0,0,0,0,0.7247,0.7131,0.7383,0.7408,0.7412,0.7521,0.7524,0.7526,0.7537,0.7534,0.7532,0.753,0.7669,0.7676,0.7684,0.7777,0,0,0.7708,0.7711,0,0,0,0,0,0,0,0,0.724,0.7257,0.7403,0.7407,0.7411,0.7509,0.7484,0.761,0.7537,0.7489,0.7532,0.7529,0.762,0.7632,0.7663,0.7784,0.779,0.7709,0.7713,0.7717,0.7719,0,0,0,0,0,0,0,0.7232,0.7251,0.7438,0.7405,0.741,0.7412,0.7427,0.7508,0.7566,0.7493,0.7494,0.7511,0.7622,0.7655,0.7666,0.7792,0.7708,0.7715,0.772,0.7723,0.7994,0.7996,0,0,0,0,0,0,0.7219,0.7244,0.7434,0.7442,0.7318,0.7418,0.7435,0.748,0.7565,0.7576,0.7513,0.7511,0.7643,0.7657,0.7671,0.7784,0.7716,0.7724,0.7728,0.7991,0.7994,0.7997,0,0,0,0,0,0,0.7213,0.7236,0.7428,0.7343,0.7368,0.7425,0.7476,0.7484,0.7517,0.7579,0.759,0.7536,0.7642,0.766,0.775,0.7789,0.7727,0.7734,0.7988,0.7992,0.7996,0.8012,0,0,0,0,0,0,0.7206,0.7234,0.7271,0.7344,0.7373,0.7506,0.7478,0.7488,0.7531,0.753,0.7604,0.7614,0.7642,0.7739,0.7758,0.7799,0.774,0.7985,0.799,0.7995,0.8009,0.8016,0.8023,0,0,0,0,0,0.7197,0.727,0.7273,0.7295,0.742,0.7508,0.7524,0.7554,0.7534,0.7571,0.761,0.7612,0.7782,0.7748,0.777,0.7814,0.7983,0.7989,0.7994,0.8005,0.8015,0.8023,0,0,0,0,0,0,0.72,0.728,0.7284,0.7384,0.7439,0.751,0.7558,0.7564,0.7626,0.7622,0.7656,0.7673,0.7762,0.7797,0.7757,0.7907,0.788,0.789,0.7881,0.789,0.7897,0.7887,0.7747,0,0,0,0,0,0.7213,0.7278,0.7344,0.7426,0.7453,0.7501,0.754,0.7558,0.7617,0.764,0.7687,0.7743,0.7808,0.7851,0.7916,0.8013,0.8029,0.8054,0.8061,0.8067,0.8075,0.8127,0.8139,0.8016,0.8016,0.8016,0,0,0.7239,0.7291,0.733,0.7428,0.7473,0.7539,0.752,0.7592,0.7641,0.7651,0.7739,0.7774,0.7839,0.7933,0.7977,0.7965,0.8112,0.8074,0.8078,0.8084,0.8134,0.8146,0.8156,0.802,0.8019,0.8019,0,0,0.7321,0.7367,0.7439,0.7484,0.7552,0.7583,0.76,0.767,0.7693,0.7782,0.779,0.7848,0.7962,0.8007,0.8045,0.814,0.8143,0.816,0.8197,0.8248,0.8257,0.8266,0.8299,0.831,0.8168,0.8168,0.8168,0,0.7345,0.7446,0.7475,0.7546,0.7588,0.7599,0.7672,0.7714,0.7799,0.7827,0.7813,0.7953,0.7998,0.8102,0.8124,0.8155,0.8174,0.8152,0.8254,0.8263,0.8271,0.8303,0.8315,0.817,0.8169,0.8169,0.8169,0,0.7471,0.7541,0.759,0.7672,0.7719,0.7791,0.783,0.7874,0.7887,0.7918,0.8006,0.806,0.8134,0.816,0.8174,0.8265,0.8255,0.8247,0.822,0.8284,0.8314,0.8327,0.8172,0.8171,0.8171,0.817,0,0,0.7561,0.7656,0.7674,0.771,0.7785,0.7839,0.7909,0.7981,0.8018,0.8075,0.8135,0.8229,0.822,0.8263,0.8282,0.8326,0.8396,0.8312,0.8314,0.8325,0.8498,0.8503,0.8517,0.8398,0.8401,0.8403,0.8492,0,0.7651,0.7777,0.7805,0.7913,0.7977,0.7987,0.8048,0.81,0.813,0.8187,0.8221,0.8286,0.8271,0.8297,0.8341,0.8378,0.8431,0.8372,0.8452,0.8455,0.8436,0.8533,0.854,0.8622,0.8504,0.8506,0.8507,0,0.7773,0.7833,0.7947,0.8011,0.8039,0.8094,0.816,0.8216,0.8273,0.8292,0.8338,0.8351,0.8423,0.8393,0.8491,0.8451,0.8485,0.8507,0.8511,0.852,0.8485,0.8544,0.8648,0.866,0.8527,0.8525,0.8524,0,0.7826,0.7935,0.8017,0.8048,0.8125,0.8162,0.8196,0.8251,0.8292,0.835,0.8377,0.8443,0.8479,0.8528,0.8558,0.8533,0.8654,0.8626,0.867,0.867,0.8696,0.8694,0.8807,0.8718,0.8718,0.8718,0.8717,0,0.7923,0.7993,0.8042,0.8092,0.8169,0.8199,0.8275,0.8308,0.8357,0.8413,0.8425,0.8478,0.8514,0.8571,0.8594,0.8671,0.8688,0.8704,0.8709,0.8703,0.8701,0.8726,0.8721,0.8721,0.872,0.872,0.8719,0,0.7996,0.8032,0.8122,0.8186,0.8204,0.8258,0.8313,0.8361,0.8391,0.8461,0.848,0.8526,0.8593,0.8627,0.8712,0.8727,0.8814,0.8816,0.8794,0.8796,0.8838,0.8834,0.8972,0.8991,0.8889,0.889,0.8891,0,0.8056,0.8109,0.8179,0.8217,0.8251,0.8313,0.8355,0.8385,0.8427,0.8495,0.8535,0.8603,0.8659,0.8765,0.8806,0.8869,0.8873,0.8917,0.8883,0.8873,0.8872,0.8869,0.8873,0.8923,0.8924,0.8925,0.8925,0,0.8157,0.8172,0.8231,0.8296,0.8344,0.8397,0.8449,0.8479,0.8517,0.8564,0.8632,0.8676,0.876,0.8827,0.8893,0.8926,0.8932,0.8935,0.8949,0.8943,0.8928,0.8935,0.881,0.8932,0.8932,0.8931,0.8931,0.893,0.8225,0.8272,0.8328,0.8393,0.8434,0.8482,0.853,0.8565,0.8623,0.8694,0.8708,0.878,0.8834,0.8923,0.8958,0.9014,0.9005,0.9025,0.903,0.9034,0.9035,0.8918,0.9026,0.9026,0.9026,0.9026,0.9026,0,0.8327,0.8362,0.8421,0.8493,0.8543,0.8543,0.86,0.8642,0.8705,0.8755,0.8809,0.8886,0.895,0.8995,0.9059,0.9095,0.9099,0.9111,0.9109,0.9116,0.9041,0.9022,0.9107,0.9107,0.9107,0.9107,0.9107,0.9107,0.8385,0.8465,0.8485,0.8584,0.8619,0.869,0.8722,0.8765,0.8805,0.8891,0.8944,0.8972,0.9019,0.9087,0.9144,0.9156,0.9178,0.919,0.9201,0.913,0.9122,0.9113,0.9096,0.9195,0.9195,0.9272,0.9273,0.9273]}]]